CZ-6A DEB

Satellite information

Favourite Embed

Satellite Type and Status

DEBRISIN ORBIT

Key statistics

Satellite CZ-6A DEB at a glance.

Uptime

1084

Days in orbit

Revolutions

≈ 14.6

Per day

Orbit

SSO

Sun Synchronous Orbit

Inclination

98.6

Latest

Satellite identification and parameters

Extended collection of information and parameters for CZ-6A DEB.

Object identification

Identified? True

Debris? True

Object name: CZ-6A DEB

International designator: 2022-151HB

Object number (NORAD): 54475

Object ID (CCSDS): 54475

Country: PEOPLES REPUBLIC OF CHINA (PRC)

Current information (Y/N): Y

RCS size: SMALL

Orbital parameters

Period: 98.582 minutes

Inclination: 98.6243 deg

SMA: 7069.019 km

Apoapsis: 788.514 km

Periapsis: 593.254 km

RAAN: 2.5272 deg

Eccentricy: 0.01381091

Argument of periapsis: 236.7297 deg

Mean anomaly: 122.0608 deg

Mean motion: 14.60710111 rev/day

Mean motion (dot): 0.00006513 rev/day2

B* drag term: 0.0011776213 1/REarth

Two-line elements (TLE)

Creation date: Oct. 30, 2025, 3:32 a.m.

Reference frame: TEME

Reference center: EARTH

Epoch: Oct. 29, 2025, 2:28 p.m. UTC

TLE line 0: 0 CZ-6A DEB

TLE line 1: 1 54475U 22151HB 25302.60297473 .00006513 00000-0 11776-2 0 9995

TLE line 2: 2 54475 98.6243 2.5272 0138109 236.7297 122.0608 14.60710111156985

Live tracking on map

Real-time ground track for satellite CZ-6A DEB.

In-orbit conjunctions

A list of the most updated potential collisions computed for object CZ-6A DEB.

Target Orbit TCA Probability of collision Miss distance Type
OBJECT A SSO 2024-10-22 03:38:31 0.0001037717 674.0 (m) UNKNOWN
SL-14 R/B LEO 2024-09-01 02:05:00 0.0004803677 347.0 (m) ROCKET BODY

Associated space launch

Chinese satellite reported for atmospheric/ocean/environmental/spatial parameter research purposes, details TBD.

CZ-6A DEB was lifted into orbit during the mission ‘Long March 6A | Yunhai 3’, on board a Long March 6A space rocket.

The launch took place on Nov. 11, 2022, 10:52 p.m. from Launch Complex 9A.

For more information about the launch, click the button.

Launch to space Long March 6A | Yunhai 3
Long March 6A | Yunhai 3

Agency: N/A

Status: Launch Successful

Launch date: Nov. 11, 2022, 10:52 p.m. UTC

Rocket: Long March 6A

Launch pad: Launch Complex 9A

Location: Taiyuan Satellite Launch Center, People's Republic of China

...

Latest news about this satellite

There are no fresh news available about this satellite. Check back as we update our databases every day.


Newsletter sign-up

Weekly statistics, charts and insights to help you stay on top of the space industry.